CZ-6A DEB

Satellite information

Favourite Embed

Satellite Type and Status

DEBRISIN ORBIT

Key statistics

Satellite CZ-6A DEB at a glance.

Uptime

911

Days in orbit

Revolutions

≈ 14.2

Per day

Orbit

SSO

Sun Synchronous Orbit

Inclination

98.8

Latest

Satellite identification and parameters

Extended collection of information and parameters for CZ-6A DEB.

Object identification

Identified? True

Debris? True

Object name: CZ-6A DEB

International designator: 2022-151AHS

Object number (NORAD): 57575

Object ID (CCSDS): 57575

Country: PEOPLES REPUBLIC OF CHINA (PRC)

Current information (Y/N): Y

RCS size: SMALL

Orbital parameters

Period: 101.538 minutes

Inclination: 98.8044 deg

SMA: 7209.603 km

Apoapsis: 865.716 km

Periapsis: 797.22 km

RAAN: 128.7102 deg

Eccentricy: 0.0047503

Argument of periapsis: 30.9028 deg

Mean anomaly: 329.4927 deg

Mean motion: 14.18194242 rev/day

Mean motion (dot): 0.00005816 rev/day2

B* drag term: 0.0028176 1/REarth

Two-line elements (TLE)

Creation date: May 8, 2025, 10:46 p.m.

Reference frame: TEME

Reference center: EARTH

Epoch: May 5, 2025, 10:35 a.m. UTC

TLE line 0: 0 CZ-6A DEB

TLE line 1: 1 57575U 22151AHS 25125.44150768 .00005816 00000-0 28176-2 0 9996

TLE line 2: 2 57575 98.8044 128.7102 0047503 30.9028 329.4927 14.18194242113362

Live tracking on map

Real-time ground track for satellite CZ-6A DEB.

In-orbit conjunctions

A list of the most updated potential collisions computed for object CZ-6A DEB.

Target Orbit TCA Probability of collision Miss distance Type
CZ-6A DEB SSO 2024-09-24 23:48:13 0.0001210695 941.0 (m) DEBRIS
SL-3 R/B LEO 2024-09-20 19:35:02 0.000182192 242.0 (m) ROCKET BODY

Associated space launch

Chinese satellite reported for atmospheric/ocean/environmental/spatial parameter research purposes, details TBD.

CZ-6A DEB was lifted into orbit during the mission ‘Long March 6A | Yunhai 3’, on board a Long March 6A space rocket.

The launch took place on Nov. 11, 2022, 10:52 p.m. from Launch Complex 9A.

For more information about the launch, click the button.

Launch to space Long March 6A | Yunhai 3
Long March 6A | Yunhai 3

Agency: N/A

Status: Launch Successful

Launch date: Nov. 11, 2022, 10:52 p.m. UTC

Rocket: Long March 6A

Launch pad: Launch Complex 9A

Location: Taiyuan Satellite Launch Center, People's Republic of China

...

Latest news about this satellite

There are no fresh news available about this satellite. Check back as we update our databases every day.


Newsletter sign-up

Weekly statistics, charts and insights to help you stay on top of the space industry.